User: anonymous   Login
Location: Unspecified
(44.4377°N, 88.0525°W)
Time: 17:40:24
(UTC-06:00)
Language:

Cosmos 1674 - Orbit

View from above orbital plane
View from above orbital plane
View from above satellite
View from above satellite

Ground track
Ground track

The orbit data is extracted from the following two-line orbital elements,

1 15944U 85069A   21060.23006298  .00001069  00000-0  47609-4 0  9996
2 15944  82.5096 327.1201 0018335  96.6779 263.6544 15.20197461943186
Epoch (UTC): 01 March 2021 05:31:17
Eccentricity: 0.0018335
inclination: 82.5096°
perigee height: 492 km
apogee height: 518 km
right ascension of ascending node: 327.1201°
argument of perigee: 96.6779°
revolutions per day: 15.20197461
mean anomaly at epoch: 263.6544°
orbit number at epoch: 94318

The dashed part of the orbit path shows where the satellite is in the earth's shadow,  

DLR